Home > Weather > Hildesheim > Past weeks

Flag for Germany Past Weather in Hildesheim, Lower Saxony, Germany — Yesterday and Last 2 Weeks

Now
61 °F

Clear.


Feels Like: 61 °F
Forecast: 56 / 76 °F
Wind: 7 mph from Northeast

Location: Hannover

Current Time: May 30, 2016 at 7:12:28 AM

Latest Report: May 30, 2016 at 6:20 AM


Visibility: 4 mi

Pressure: 29.65 "Hg

Humidity: 100%

Dew Point: 61 °F

Location of HildesheimLocation

Past Weather in Hildesheim — Graph

°F

Hildesheim Temperature Yesterday

Maximum temperature yesterday: 66 °F (at 5:50 PM)
Minimum temperature yesterday: 57 °F (at 6:50 AM)
Average temperature yesterday: 61 °F

High & Low Weather Summary for the Past Weeks

 TemperatureHumidityPressure
High81 °F (May 22, 2:20 PM)100% (May 16, 5:20 AM)30.07 "Hg (May 16, 5:20 AM)
Low39 °F (May 16, 5:20 AM)42% (May 22, 12:50 PM)29.65 "Hg (May 30, 3:20 AM)
Average57 °F80%29.92 "Hg
* Reported May 15 6:20 AM — May 30 6:20 AM, Hildesheim, Weather by CustomWeather, © 2016

Note: Actual official high and low records may vary slightly from our data, if they occured in-between our weather recording intervals... More about our weather records

Advertising

Hildesheim Weather History for the Previous 24 Hours

Scroll right to see more
 ConditionsComfort  
Time TempWeatherWind HumidityBarometerVisibility
6:20 AM
Mon, May 30
61 °FClear.7 mph100%29.65 "Hg4 mi
5:20 AM59 °FFog.5 mph100%29.65 "Hg2 mi
4:50 AM59 °FPassing clouds.5 mph100%29.65 "Hg1 mi
4:20 AM57 °FFog.6 mph100%29.65 "Hg1 mi
3:50 AM59 °FCool.3 mph100%29.68 "Hg1 mi
3:20 AM59 °FPassing clouds.3 mph100%29.65 "Hg1 mi
2:50 AM59 °FFog.2 mph100%29.68 "Hg0 mi
2:20 AM61 °FFog.3 mph100%29.68 "Hg0 mi
1:50 AM61 °FFog.7 mph100%29.68 "Hg0 mi
1:20 AM61 °FFog.5 mph100%29.68 "Hg0 mi
12:50 AM61 °FFog.5 mph100%29.71 "Hg1 mi
12:20 AM61 °FFog.6 mph100%29.71 "Hg1 mi
11:50 PM
Sun, May 29
61 °FRain. Fog.5 mph100%29.71 "Hg1 mi
11:20 PM61 °FRain. Fog.6 mph100%29.71 "Hg1 mi
10:50 PM63 °FThundershowers. Fog.5 mph100%29.71 "Hg2 mi
10:20 PM63 °FFog.3 mph100%29.74 "Hg2 mi
9:50 PM63 °FFog.5 mph100%29.74 "Hg3 mi
9:20 PM64 °FLow clouds.7 mph100%29.71 "Hg4 mi
8:50 PM64 °FLow clouds.5 mph100%29.74 "Hg4 mi
8:20 PM64 °FLow clouds.6 mph100%29.74 "Hg5 mi
7:50 PM64 °FLow clouds.7 mph100%29.71 "Hg5 mi
7:20 PM66 °FPartly sunny.6 mph88%29.71 "Hg6 mi
6:50 PM66 °FPartly sunny.6 mph88%29.71 "Hg6 mi
6:20 PM66 °FPartly sunny.5 mph88%29.74 "HgN/A
5:50 PM66 °FPartly sunny.5 mph88%29.74 "HgN/A
5:20 PM64 °FBroken clouds.5 mph94%29.74 "HgN/A
4:50 PM64 °FBroken clouds.6 mph94%29.74 "HgN/A
4:20 PM63 °FBroken clouds.6 mph94%29.77 "HgN/A
3:50 PM63 °FBroken clouds.8 mph94%29.77 "HgN/A
3:20 PM63 °FMostly cloudy.8 mph94%29.77 "HgN/A
2:50 PM63 °FMostly cloudy.9 mph94%29.77 "HgN/A
2:20 PM61 °FMore clouds than sun.7 mph100%29.77 "HgN/A
9:50 AM57 °FCool.7 mph100%29.80 "HgN/A
9:20 AM57 °FLight rain. Partly sunny.10 mph100%29.80 "Hg6 mi
8:50 AM59 °FLight rain. Partly sunny.8 mph100%29.80 "Hg6 mi
8:20 AM59 °FLight rain. Partly sunny.10 mph100%29.80 "Hg5 mi
7:50 AM57 °FLight rain. Broken clouds.9 mph100%29.80 "Hg4 mi
7:20 AM57 °FLight rain. Broken clouds.9 mph100%29.80 "Hg3 mi
Weather by CustomWeather, © 2016

See weather overviewHow to use our weather pages